SCP
0 0 0 0 0 0 0 0 0 0 0 0 0 0 0 0 0 0 0 0 0 0 0 0 0 0 0 0 0 0 0 0 0 0 0 0 0 0 0 0 0 0 -0
0 0 0 0 0 0 0 0 0 0 0 0 0 0 0 0 0 0 0 0 0 0 0 0 0 0 0 0 0 0 0 0 0 0 0 0 0 0 0 0 0 0 0
0 0 0 0 0 0 0 0 0 0 0 0 0 0 0 0 0 0 0 0 0 0 0 0 0 0 0 0 0 0 0 0 0 0 0 0 0 0 0 0 0 0 0
0 0 0 0 0 0 0 0 0 0 0 0 0 0 0 0 0 0 0 0 0 0 0 0 0 0 0 0 0 0 0 0 0 0 0 0 0 0 0 0 0 0 0
0 0 0 0 0 0 0 0 0 0 0 0 0 0 0 0 0 0 0 0 0 0 0 0 0 0 0 0 0 0 0 0 0 0 0 0 0 0 0 0 0 0 -0
0 0 0 0 0 0 0 0 0 0 0 0 0 0 0 0 0 0 0 0 0 0 0 0 0 0 0 0 0 0 0 0 0 0 0 0 0 0 0 0 0 0 0
0 0 0 0 0 0 0 0 0 0 0 0 0 0 0 0 0 0 0 0 0 0 0 0 0 0 0 0 0 0 0 0 0 0 0 0 0 0 0 0 0 0 0
0 0 0 0 0 0 0 0 0 0 0 0 0 0 0 0 0 0 0 0 0 0 0 0 0 0 0 0 0 0 0 0 0 0 0 0 0 0 0 0 0 0 0
0 0 0 0 0 0 0 0 0 0 0 0 0 0 0 0 0 0 0 0 0 0 0 0 0 0 0 0 0 0 0 0 0 0 0 0 0 0 0 0 0 0 0
0 0 0 0 0 0 0 0 0 0 0 0 0 0 0 0 0 0 0 0 0 0 0 0 0 0 0 0 0 0 0 0 0 -0 -0 0 0 0 0 0 0 0 0
0 0 0 0 0 0 0 0 0 0 0 0 0 0 0 0 0 0 0 0 0 0 0 0 0 0 0 0 0 0 0 0 0 -0 0 0 0 0 0 0 0 0 0
0 0 0 0 0 0 0 0 0 0 0 0 0 0 0 0 0 0 0 0 0 0 0 0 0 0 0 0 0 0 0 0 0 -0 -0 0 0 0 0 0 0 0 0
0 0 0 0 0 0 0 0 0 0 0 0 0 0 0 0 0 0 0 0 0 0 0 0 0 0 0 0 0 0 0 0 0 -0 -0 0 0 0 0 0 0 0 0
0 0 0 0 0 0 0 0 0 0 0 0 0 0 0 0 0 0 0 0 0 0 0 0 0 0 0 0 0 0 0 0 0 -0 -0 0 0 0 0 0 0 0 0
0 0 0 0 0 0 0 0 0 0 0 0 0 0 0 0 0 0 0 0 0 0 0 0 0 0 0 0 0 0 0 0 0 -0 -0 0 0 0 0 0 0 0 0
0 0 0 0 0 0 0 0 0 0 0 0 0 0 0 0 0 0 0 0 0 0 0 0 0 0 0 0 0 0 0 -0 0 -0 -0 0 0 0 0 0 0 0 0
0 0 0 0 0 0 0 0 0 0 0 0 0 0 0 0 0 0 0 0 0 0 0 0 0 0 0 0 0 0 0 0 -0 -0 -0 0 0 0 0 0 0 0 0
0 0 0 0 0 0 0 0 0 0 0 0 0 0 0 0 0 0 0 0 0 0 0 0 0 0 0 0 0 0 0 0 -0 -0 0 0 0 0 0 0 0 0 0
0 0 0 0 0 0 0 0 0 0 0 0 0 0 0 0 0 0 0 0 0 0 0 0 0 0 0 0 0 0 0 -0 -0 0 0 0 0 0 0 0 0 0 0
0 0 0 0 0 0 0 0 0 0 0 0 0 0 0 0 0 0 0 0 0 0 0 0 0 0 0 0 0 -0 0 0 0 0 0 0 0 0 0 0 0 0 0
0 0 0 0 0 0 0 0 0 0 0 0 0 0 0 0 0 0 0 0 0 0 0 0 0 0 0 0 -0 0 0 0 0 0 0 0 0 0 0 0 0 0 0
0 0 0 0 0 0 0 0 0 0 0 0 0 0 0 0 0 0 0 0 0 -0 -0 0 0 -0 -0 0 -0 0 0 0 0 0 0 1 0 0 0 0 0 0 0
0 0 0 0 0 0 0 0 0 0 0 0 0 0 0 0 0 0 0 0 -0 -0 -0 -0 0 -0 0 0 0 0 0 0 0 0 0 1 0 0 0 0 0 0 0
0 0 0 0 0 0 0 0 0 0 0 0 0 0 0 0 0 0 0 0 -0 0 -0 -0 -0 -0 0 0 0 0 0 0 0 0 1 0 0 0 0 0 0 0 0
0 0 0 0 0 0 0 0 0 0 0 0 0 0 0 0 0 0 0 -0 -0 -0 -0 -0 -0 -0 -0 0 0 0 0 0 0 0 0 0 0 0 0 0 0 0 0
0 0 0 0 0 0 0 0 0 0 0 0 0 0 0 0 0 0 0 0 -0 -0 0 -0 -0 -0 -0 0 0 0 0 -0 0 0 0 0 0 0 0 0 0 0 0
Wind_Speed_500mb
22 22 21 19 17 15 12 11 11 12 14 14 12 13 15 18 24 27 28 27 27 24 30 30 30 33 27 16 28 41 38 34 29 26 27 35 36 33 37 30 26 23 20
23 23 23 21 19 17 16 15 15 14 13 15 17 17 16 18 19 19 21 30 34 36 38 39 41 42 41 32 23 29 48 41 37 32 30 42 41 36 40 33 33 25 24
25 25 25 22 20 18 16 16 18 18 17 16 16 16 19 20 20 20 20 21 23 31 43 49 47 48 45 40 42 33 34 51 47 40 36 42 46 41 40 37 34 28 27
27 27 27 24 22 19 17 17 17 18 20 20 19 17 16 17 18 18 20 24 28 30 33 39 47 56 57 53 51 52 47 49 58 50 44 46 39 45 39 42 38 34 31
28 28 27 25 23 21 19 19 21 21 22 23 23 19 18 17 15 16 17 28 34 39 43 43 48 51 52 61 64 64 56 37 56 60 54 53 48 42 48 47 40 37 35
30 29 28 26 24 22 21 20 21 22 25 30 30 27 22 22 18 20 23 29 31 33 39 44 48 53 56 56 64 71 69 64 33 63 66 60 55 50 47 52 43 39 37
33 32 29 26 25 22 20 21 22 24 25 32 38 38 30 23 29 21 50 35 36 39 43 48 53 54 54 62 63 66 76 80 75 30 69 66 65 56 50 59 49 45 40
35 33 30 28 25 22 22 22 23 25 26 29 34 42 23 30 14 44 18 46 45 46 41 42 46 50 57 60 65 69 75 85 84 85 48 75 72 63 57 57 52 49 41
38 35 32 30 27 23 22 22 23 23 26 25 28 19 13 10 58 3 53 37 61 56 56 51 49 50 53 60 67 71 71 84 96 84 76 66 80 69 63 60 54 55 47
41 37 34 31 27 25 24 23 22 22 23 25 24 24 24 32 27 31 23 69 57 70 64 57 58 59 59 60 63 69 70 72 92 101 84 49 78 79 66 64 58 58 53
43 39 35 31 28 27 25 24 23 21 21 24 26 30 33 38 42 51 69 65 75 72 69 66 68 64 63 66 63 62 64 68 77 116 91 77 69 89 72 69 65 60 56
45 40 36 32 30 28 26 25 23 23 23 27 30 33 37 42 48 52 65 78 81 83 82 76 74 71 69 67 59 63 57 62 75 70 109 81 58 82 81 72 68 64 57
47 41 37 33 30 27 25 25 26 27 28 33 36 39 40 45 48 53 59 73 83 90 91 86 77 76 74 71 71 64 57 61 64 62 95 90 90 67 94 76 74 66 60
39 36 36 33 29 28 26 27 29 31 34 39 41 43 48 50 46 48 53 62 83 93 91 76 76 80 80 76 71 62 55 59 58 58 74 74 82 85 100 82 78 66 60
40 39 37 33 29 29 28 30 33 36 38 39 43 48 47 46 47 50 52 52 57 82 116 74 83 86 81 80 65 64 57 60 61 52 50 90 70 79 92 81 77 64 58
41 39 37 33 31 31 31 33 36 36 40 43 49 50 50 50 48 49 50 49 55 65 102 89 98 94 85 83 75 67 62 64 62 51 56 83 69 82 84 74 70 60 56
42 38 35 33 32 32 31 35 36 38 44 49 51 49 49 47 50 48 49 53 59 63 83 111 97 96 90 90 91 63 55 55 60 55 62 83 68 64 82 68 67 58 58
43 35 33 34 33 32 32 34 37 41 48 51 47 46 46 43 47 47 51 58 62 64 75 99 98 96 84 98 77 71 55 51 54 54 77 78 61 76 74 72 67 61 60
42 34 35 35 32 32 32 34 39 45 46 44 41 43 42 45 51 52 56 62 64 68 74 83 87 89 93 90 91 64 49 52 55 51 79 55 64 78 81 72 71 65 64
43 36 34 34 33 32 33 36 42 42 43 39 38 42 48 51 55 61 64 66 70 74 75 77 98 90 87 79 52 43 47 52 55 63 83 50 66 76 85 79 75 67 66
44 35 35 35 33 34 33 39 38 40 39 36 44 49 52 57 58 54 56 58 61 70 78 82 87 86 88 70 43 37 47 47 54 60 50 54 66 100 88 81 75 66 65
46 41 37 34 34 32 34 35 35 34 34 43 47 52 58 65 57 53 53 54 56 63 73 79 81 87 92 40 45 44 40 54 52 75 64 60 81 94 86 85 77 69 65
49 42 37 34 33 32 32 31 32 32 35 42 48 59 63 49 49 54 59 51 59 54 63 70 73 71 80 52 35 37 46 49 62 57 65 72 96 92 89 85 75 70 64
50 41 36 33 32 32 28 29 31 28 37 46 53 47 44 44 50 49 52 63 60 66 70 69 66 73 62 42 26 29 63 46 65 28 85 67 94 106 95 83 73 63 64
50 41 35 32 32 30 25 27 30 31 40 47 42 38 39 45 49 48 56 58 65 71 67 68 66 54 33 21 20 31 46 39 50 22 89 82 103 110 94 84 71 56 60
44 37 34 31 29 27 23 27 31 32 44 43 37 31 35 42 47 53 54 59 69 65 73 75 53 38 6 17 20 23 44 64 51 84 83 98 96 111 92 86 72 63 58
Wind_Direction_500mb
301 299 296 292 289 289 289 290 294 297 301 303 301 293 290 281 272 267 267 262 260 261 258 260 259 252 255 264 260 260 273 269 266 262 224 232 238 236 248 254 249 239 229
295 293 291 287 283 282 286 293 296 296 297 303 305 305 299 294 293 289 280 270 267 265 261 260 261 258 256 252 254 254 260 264 263 260 241 232 241 245 245 252 254 235 230
291 291 288 281 277 277 284 292 298 305 308 305 299 299 301 301 299 300 304 302 296 286 276 272 267 266 264 252 247 258 257 254 259 257 249 238 235 244 242 244 248 235 231
285 286 284 279 276 275 279 286 288 294 302 305 304 302 301 298 298 309 315 319 314 304 294 287 282 271 267 265 253 246 259 238 252 255 251 246 241 241 238 240 243 238 233
277 278 277 274 271 272 278 286 294 304 311 311 311 308 312 303 287 305 333 333 326 317 310 303 295 288 276 263 259 250 246 257 237 253 249 245 243 240 228 236 240 232 230
270 270 269 265 264 268 280 292 301 313 320 319 320 313 312 300 285 289 323 334 326 317 310 304 297 296 294 280 265 253 247 241 240 230 245 244 240 237 227 229 234 237 224
262 264 265 263 262 265 280 292 304 313 324 324 326 322 328 322 312 302 326 329 325 322 319 313 309 304 299 296 288 266 250 246 242 247 229 242 239 235 230 223 230 234 223
255 258 261 261 262 266 282 292 302 313 324 330 335 336 332 327 328 311 316 321 320 320 314 311 306 299 294 294 292 285 268 251 245 239 222 231 235 232 227 225 223 228 225
250 253 254 255 256 262 279 287 295 307 317 327 330 334 326 299 321 308 313 307 316 319 318 322 315 300 293 288 287 288 279 266 253 241 237 215 231 227 225 226 220 221 217
246 248 248 250 251 263 274 277 286 298 307 318 322 322 310 309 314 315 289 310 315 315 315 321 317 311 301 293 286 284 286 274 260 246 245 231 215 226 221 223 217 217 214
242 243 245 244 251 263 270 271 277 285 299 310 315 317 312 307 305 306 310 311 311 314 311 318 314 317 307 302 287 283 283 270 264 257 246 237 213 219 217 217 213 214 210
238 239 240 242 252 263 268 265 268 276 292 301 306 307 306 303 302 300 300 307 309 311 312 313 314 314 310 306 291 290 281 260 260 270 245 250 213 206 214 211 206 210 206
236 238 237 241 251 260 265 262 269 277 285 291 297 299 297 296 297 295 295 301 305 307 305 306 310 313 313 313 307 297 278 260 263 265 251 243 223 211 208 205 199 206 205
237 233 233 240 248 254 264 264 273 280 287 291 292 294 296 293 293 293 293 298 302 302 302 301 307 310 314 311 307 295 278 268 265 269 262 241 223 222 199 196 192 198 199
228 228 233 238 247 255 264 267 275 283 288 290 293 298 296 295 291 290 288 289 294 299 298 300 301 309 312 310 309 304 285 270 261 257 255 237 222 215 192 192 183 190 193
225 229 233 240 249 258 265 270 279 286 288 293 296 297 295 296 294 292 292 289 290 290 292 298 303 308 310 308 307 299 283 273 256 252 234 231 224 208 188 188 178 184 184
224 230 234 241 251 259 266 274 281 288 292 296 298 298 296 296 297 297 295 293 291 292 291 298 303 308 310 305 307 291 277 261 247 239 225 228 217 203 186 189 179 179 183
223 229 233 242 252 260 267 274 285 291 296 298 299 298 298 301 299 299 298 295 295 295 296 298 306 302 299 304 296 292 266 252 242 229 210 228 220 195 188 189 177 182 184
222 229 234 244 253 259 266 278 288 295 299 298 300 299 302 299 298 300 298 298 299 302 301 300 291 292 300 305 303 280 250 238 240 233 211 236 201 192 184 185 181 185 188
223 231 238 248 251 258 269 283 293 297 299 300 302 298 299 298 299 300 299 297 298 302 300 293 298 298 296 302 287 251 251 234 224 202 205 234 192 191 180 182 183 188 186
222 232 238 246 252 261 274 288 294 302 301 302 300 299 299 300 303 299 299 300 297 295 298 297 299 301 297 292 268 241 240 250 228 199 212 207 188 184 176 179 183 187 185
219 229 239 248 254 262 282 289 296 300 298 294 301 299 299 303 301 305 302 298 297 295 296 297 301 304 309 287 258 241 236 212 218 191 217 192 196 168 171 179 183 185 191
219 231 240 249 255 270 283 289 297 294 292 298 303 304 307 307 310 307 307 310 309 306 304 299 302 308 309 295 240 227 204 201 195 211 199 181 186 175 177 178 181 187 189
219 231 242 249 258 276 281 290 300 290 296 306 305 311 311 315 317 320 318 313 312 312 314 314 311 309 307 306 245 209 200 197 203 242 190 174 174 174 176 174 180 188 182
218 230 240 246 265 273 279 288 300 297 305 311 316 319 322 320 319 317 313 314 318 317 322 323 317 319 307 208 214 192 204 216 231 191 179 157 160 166 172 170 174 183 179
222 228 236 251 262 271 279 290 297 301 310 309 319 329 327 320 318 316 316 317 315 323 327 325 334 323 34 200 191 182 206 222 218 161 161 166 167 163 162 168 171 175 179
Wind_Speed_850mb
22 22 21 19 17 15 12 11 11 12 14 14 12 13 15 18 24 27 28 27 27 24 30 30 30 33 27 16 28 41 38 34 29 26 27 35 36 33 37 30 26 23 20
23 23 23 21 19 17 16 15 15 14 13 15 17 17 16 18 19 19 21 30 34 36 38 39 41 42 41 32 23 29 48 41 37 32 30 42 41 36 40 33 33 25 24
25 25 25 22 20 18 16 16 18 18 17 16 16 16 19 20 20 20 20 21 23 31 43 49 47 48 45 40 42 33 34 51 47 40 36 42 46 41 40 37 34 28 27
27 27 27 24 22 19 17 17 17 18 20 20 19 17 16 17 18 18 20 24 28 30 33 39 47 56 57 53 51 52 47 49 58 50 44 46 39 45 39 42 38 34 31
28 28 27 25 23 21 19 19 21 21 22 23 23 19 18 17 15 16 17 28 34 39 43 43 48 51 52 61 64 64 56 37 56 60 54 53 48 42 48 47 40 37 35
30 29 28 26 24 22 21 20 21 22 25 30 30 27 22 22 18 20 23 29 31 33 39 44 48 53 56 56 64 71 69 64 33 63 66 60 55 50 47 52 43 39 37
33 32 29 26 25 22 20 21 22 24 25 32 38 38 30 23 29 21 50 35 36 39 43 48 53 54 54 62 63 66 76 80 75 30 69 66 65 56 50 59 49 45 40
35 33 30 28 25 22 22 22 23 25 26 29 34 42 23 30 14 44 18 46 45 46 41 42 46 50 57 60 65 69 75 85 84 85 48 75 72 63 57 57 52 49 41
38 35 32 30 27 23 22 22 23 23 26 25 28 19 13 10 58 3 53 37 61 56 56 51 49 50 53 60 67 71 71 84 96 84 76 66 80 69 63 60 54 55 47
41 37 34 31 27 25 24 23 22 22 23 25 24 24 24 32 27 31 23 69 57 70 64 57 58 59 59 60 63 69 70 72 92 101 84 49 78 79 66 64 58 58 53
43 39 35 31 28 27 25 24 23 21 21 24 26 30 33 38 42 51 69 65 75 72 69 66 68 64 63 66 63 62 64 68 77 116 91 77 69 89 72 69 65 60 56
45 40 36 32 30 28 26 25 23 23 23 27 30 33 37 42 48 52 65 78 81 83 82 76 74 71 69 67 59 63 57 62 75 70 109 81 58 82 81 72 68 64 57
47 41 37 33 30 27 25 25 26 27 28 33 36 39 40 45 48 53 59 73 83 90 91 86 77 76 74 71 71 64 57 61 64 62 95 90 90 67 94 76 74 66 60
39 36 36 33 29 28 26 27 29 31 34 39 41 43 48 50 46 48 53 62 83 93 91 76 76 80 80 76 71 62 55 59 58 58 74 74 82 85 100 82 78 66 60
40 39 37 33 29 29 28 30 33 36 38 39 43 48 47 46 47 50 52 52 57 82 116 74 83 86 81 80 65 64 57 60 61 52 50 90 70 79 92 81 77 64 58
41 39 37 33 31 31 31 33 36 36 40 43 49 50 50 50 48 49 50 49 55 65 102 89 98 94 85 83 75 67 62 64 62 51 56 83 69 82 84 74 70 60 56
42 38 35 33 32 32 31 35 36 38 44 49 51 49 49 47 50 48 49 53 59 63 83 111 97 96 90 90 91 63 55 55 60 55 62 83 68 64 82 68 67 58 58
43 35 33 34 33 32 32 34 37 41 48 51 47 46 46 43 47 47 51 58 62 64 75 99 98 96 84 98 77 71 55 51 54 54 77 78 61 76 74 72 67 61 60
42 34 35 35 32 32 32 34 39 45 46 44 41 43 42 45 51 52 56 62 64 68 74 83 87 89 93 90 91 64 49 52 55 51 79 55 64 78 81 72 71 65 64
43 36 34 34 33 32 33 36 42 42 43 39 38 42 48 51 55 61 64 66 70 74 75 77 98 90 87 79 52 43 47 52 55 63 83 50 66 76 85 79 75 67 66
44 35 35 35 33 34 33 39 38 40 39 36 44 49 52 57 58 54 56 58 61 70 78 82 87 86 88 70 43 37 47 47 54 60 50 54 66 100 88 81 75 66 65
46 41 37 34 34 32 34 35 35 34 34 43 47 52 58 65 57 53 53 54 56 63 73 79 81 87 92 40 45 44 40 54 52 75 64 60 81 94 86 85 77 69 65
49 42 37 34 33 32 32 31 32 32 35 42 48 59 63 49 49 54 59 51 59 54 63 70 73 71 80 52 35 37 46 49 62 57 65 72 96 92 89 85 75 70 64
50 41 36 33 32 32 28 29 31 28 37 46 53 47 44 44 50 49 52 63 60 66 70 69 66 73 62 42 26 29 63 46 65 28 85 67 94 106 95 83 73 63 64
50 41 35 32 32 30 25 27 30 31 40 47 42 38 39 45 49 48 56 58 65 71 67 68 66 54 33 21 20 31 46 39 50 22 89 82 103 110 94 84 71 56 60
44 37 34 31 29 27 23 27 31 32 44 43 37 31 35 42 47 53 54 59 69 65 73 75 53 38 6 17 20 23 44 64 51 84 83 98 96 111 92 86 72 63 58
Wind_Direction_850mb
301 299 296 292 289 289 289 290 294 297 301 303 301 293 290 281 272 267 267 262 260 261 258 260 259 252 255 264 260 260 273 269 266 262 224 232 238 236 248 254 249 239 229
295 293 291 287 283 282 286 293 296 296 297 303 305 305 299 294 293 289 280 270 267 265 261 260 261 258 256 252 254 254 260 264 263 260 241 232 241 245 245 252 254 235 230
291 291 288 281 277 277 284 292 298 305 308 305 299 299 301 301 299 300 304 302 296 286 276 272 267 266 264 252 247 258 257 254 259 257 249 238 235 244 242 244 248 235 231
285 286 284 279 276 275 279 286 288 294 302 305 304 302 301 298 298 309 315 319 314 304 294 287 282 271 267 265 253 246 259 238 252 255 251 246 241 241 238 240 243 238 233
277 278 277 274 271 272 278 286 294 304 311 311 311 308 312 303 287 305 333 333 326 317 310 303 295 288 276 263 259 250 246 257 237 253 249 245 243 240 228 236 240 232 230
270 270 269 265 264 268 280 292 301 313 320 319 320 313 312 300 285 289 323 334 326 317 310 304 297 296 294 280 265 253 247 241 240 230 245 244 240 237 227 229 234 237 224
262 264 265 263 262 265 280 292 304 313 324 324 326 322 328 322 312 302 326 329 325 322 319 313 309 304 299 296 288 266 250 246 242 247 229 242 239 235 230 223 230 234 223
255 258 261 261 262 266 282 292 302 313 324 330 335 336 332 327 328 311 316 321 320 320 314 311 306 299 294 294 292 285 268 251 245 239 222 231 235 232 227 225 223 228 225
250 253 254 255 256 262 279 287 295 307 317 327 330 334 326 299 321 308 313 307 316 319 318 322 315 300 293 288 287 288 279 266 253 241 237 215 231 227 225 226 220 221 217
246 248 248 250 251 263 274 277 286 298 307 318 322 322 310 309 314 315 289 310 315 315 315 321 317 311 301 293 286 284 286 274 260 246 245 231 215 226 221 223 217 217 214
242 243 245 244 251 263 270 271 277 285 299 310 315 317 312 307 305 306 310 311 311 314 311 318 314 317 307 302 287 283 283 270 264 257 246 237 213 219 217 217 213 214 210
238 239 240 242 252 263 268 265 268 276 292 301 306 307 306 303 302 300 300 307 309 311 312 313 314 314 310 306 291 290 281 260 260 270 245 250 213 206 214 211 206 210 206
236 238 237 241 251 260 265 262 269 277 285 291 297 299 297 296 297 295 295 301 305 307 305 306 310 313 313 313 307 297 278 260 263 265 251 243 223 211 208 205 199 206 205
237 233 233 240 248 254 264 264 273 280 287 291 292 294 296 293 293 293 293 298 302 302 302 301 307 310 314 311 307 295 278 268 265 269 262 241 223 222 199 196 192 198 199
228 228 233 238 247 255 264 267 275 283 288 290 293 298 296 295 291 290 288 289 294 299 298 300 301 309 312 310 309 304 285 270 261 257 255 237 222 215 192 192 183 190 193
225 229 233 240 249 258 265 270 279 286 288 293 296 297 295 296 294 292 292 289 290 290 292 298 303 308 310 308 307 299 283 273 256 252 234 231 224 208 188 188 178 184 184
224 230 234 241 251 259 266 274 281 288 292 296 298 298 296 296 297 297 295 293 291 292 291 298 303 308 310 305 307 291 277 261 247 239 225 228 217 203 186 189 179 179 183
223 229 233 242 252 260 267 274 285 291 296 298 299 298 298 301 299 299 298 295 295 295 296 298 306 302 299 304 296 292 266 252 242 229 210 228 220 195 188 189 177 182 184
222 229 234 244 253 259 266 278 288 295 299 298 300 299 302 299 298 300 298 298 299 302 301 300 291 292 300 305 303 280 250 238 240 233 211 236 201 192 184 185 181 185 188
223 231 238 248 251 258 269 283 293 297 299 300 302 298 299 298 299 300 299 297 298 302 300 293 298 298 296 302 287 251 251 234 224 202 205 234 192 191 180 182 183 188 186
222 232 238 246 252 261 274 288 294 302 301 302 300 299 299 300 303 299 299 300 297 295 298 297 299 301 297 292 268 241 240 250 228 199 212 207 188 184 176 179 183 187 185
219 229 239 248 254 262 282 289 296 300 298 294 301 299 299 303 301 305 302 298 297 295 296 297 301 304 309 287 258 241 236 212 218 191 217 192 196 168 171 179 183 185 191
219 231 240 249 255 270 283 289 297 294 292 298 303 304 307 307 310 307 307 310 309 306 304 299 302 308 309 295 240 227 204 201 195 211 199 181 186 175 177 178 181 187 189
219 231 242 249 258 276 281 290 300 290 296 306 305 311 311 315 317 320 318 313 312 312 314 314 311 309 307 306 245 209 200 197 203 242 190 174 174 174 176 174 180 188 182
218 230 240 246 265 273 279 288 300 297 305 311 316 319 322 320 319 317 313 314 318 317 322 323 317 319 307 208 214 192 204 216 231 191 179 157 160 166 172 170 174 183 179
222 228 236 251 262 271 279 290 297 301 310 309 319 329 327 320 318 316 316 317 315 323 327 325 334 323 34 200 191 182 206 222 218 161 161 166 167 163 162 168 171 175 179